1532469600.8,28403,19.25,73966.5,4.89,-11.37,-10.93,0,*7A
1532469602.02,28404,19.25,73960.0,4.85,-12.71,-9.93,0,*48
1532469603.2,28405,19.25,73962.8,4.85,-8.29,-4.41,0,*7D
1532469604.43,28406,19.25,73964.0,4.85,-5.73,-0.89,0,*4C
1532469605.63,28407,19.25,73960.8,4.81,-2.19,1.47,0,*5C
1532469606.83,28408,19.25,73952.0,4.81,1.41,2.85,0,*7D
1532469608.08,28409,19.25,73948.8,4.79,3.33,3.75,0,*72
1532469609.31,28410,19.25,73942.5,4.79,4.07,3.97,0,*76
1532469610.54,28411,19.25,73940.8,4.79,4.07,3.53,0,*7F
1532469611.76,28412,19.25,73946.0,4.81,3.45,2.43,0,*7A
1532469612.98,28413,19.25,73950.8,4.81,1.89,0.63,0,*49
1532469614.16,28414,19.25,73956.8,4.85,-1.25,1.01,0,*54
1532469615.39,28415,19.25,73944.5,4.85,1.21,2.85,0,*73
1532469616.59,28416,19.25,73948.8,4.85,2.73,2.65,0,*7A
1532469617.81,28417,19.25,73954.8,4.89,1.51,1.59,0,*78
1532469619.06,28418,19.25,73952.0,4.87,1.51,2.25,0,*71
1532469620.26,28419,19.25,73946.0,4.87,2.27,3.29,0,*7F
1532469621.46,28420,19.25,73946.8,4.89,2.91,3.79,0,*73
1532469622.67,28421,19.25,73944.5,4.91,3.29,3.89,0,*76
1532469623.89,28422,19.25,73946.0,4.91,3.37,4.11,0,*7C
1532469625.12,28423,19.25,73940.3,4.93,3.79,4.45,0,*74
1532469626.37,28424,19.25,73948.8,4.93,4.27,4.71,0,*78
1532469627.63,28425,19.25,73938.8,4.93,4.59,4.71,0,*70
1532469628.9,28426,19.25,73946.8,4.93,4.59,4.71,0,*73
1532469630.14,28427,19.25,73946.8,4.95,4.63,4.71,0,*7D
1532469631.4,28428,19.25,73944.5,4.93,4.59,4.67,0,*7A
1532469632.66,28429,19.25,73936.5,4.97,4.59,4.63,0,*7B
1532469633.92,28430,19.25,73938.8,4.97,4.59,4.71,0,*70
1532469635.16,28431,19.25,73932.5,4.95,4.63,4.75,0,*7E
1532469636.4,28432,19.25,73932.3,4.95,4.71,4.71,0,*7A
1532469637.65,28433,19.25,73934.3,4.95,4.71,4.71,0,*7B
1532469638.91,28434,19.25,73932.5,4.97,4.71,4.71,0,*7E
1532469640.18,28435,19.25,73918.8,4.97,4.71,4.75,0,*7B
1532469641.41,28436,19.25,73916.8,4.95,4.75,4.71,0,*7A
1532469642.65,28437,19.25,73918.8,4.95,4.75,4.75,0,*7F
1532469643.91,28438,19.25,73932.0,4.97,4.63,4.63,0,*72
1532469645.17,28439,19.25,73936.8,4.97,4.59,4.63,0,*7A
1532469646.42,28440,19.25,73928.5,4.97,4.63,4.63,0,*7D
1532469647.67,28441,19.25,73930.3,4.97,4.63,4.59,0,*75
1532469648.93,28442,19.25,73930.5,4.97,4.63,4.75,0,*78
1532469650.18,28443,19.25,73928.5,4.97,4.63,4.63,0,*7E
1532469651.42,28444,19.25,73934.0,4.99,4.67,4.67,0,*77
1532469652.65,28445,19.25,73936.0,4.99,4.63,4.75,0,*71
1532469653.86,28446,19.25,73938.3,4.99,4.57,4.63,0,*72
1532469655.09,28447,19.25,73940.0,4.97,4.53,4.59,0,*70
1532469656.32,28448,19.25,73944.8,4.97,4.53,4.59,0,*7F
1532469657.57,28449,19.25,73946.8,5.01,4.59,4.67,0,*77
1532469658.77,28450,19.25,73940.3,4.97,4.49,4.49,0,*7C
1532469659.95,28451,19.25,73942.5,4.99,4.53,4.53,0,*73
1532469661.13,28452,19.25,73944.0,4.99,4.57,4.53,0,*74
1532469662.33,28453,19.25,73940.3,4.97,4.49,4.53,0,*74
1532469663.51,28454,19.25,73950.3,4.99,4.45,4.57,0,*75
1532469664.7,28455,19.25,73942.8,4.99,4.53,4.53,0,*77
1532469665.88,28456,19.25,73944.8,4.99,4.53,4.53,0,*74
1532469667.06,28457,19.25,73942.5,4.99,4.45,4.53,0,*72
1532469668.24,28458,19.25,73942.0,4.99,4.53,4.53,0,*7A
1532469669.43,28459,19.25,73942.5,4.99,4.53,4.45,0,*7C
1532469670.61,28460,19.25,73930.0,4.99,4.57,4.45,0,*72
1532469671.81,28461,19.25,73924.3,4.97,4.41,4.37,0,*7F
1532469673.07,28462,19.25,73936.5,5.01,4.59,4.59,0,*73
1532469674.26,28463,19.25,73936.5,5.01,4.57,4.49,0,*7D
1532469675.46,28464,19.25,73932.5,4.97,4.53,4.49,0,*70
1532469676.64,28465,19.25,73930.3,4.99,4.45,4.53,0,*73
1532469677.9,28466,19.25,73928.5,5.01,4.59,4.59,0,*77
1532469679.12,28467,19.25,73924.0,5.01,4.57,4.59,0,*78
1532469680.37,28468,19.25,73928.8,5.01,4.67,4.67,0,*79
1532469681.63,28469,19.25,73926.8,5.01,4.59,4.67,0,*75
1532469682.87,28470,19.25,73946.0,5.01,4.59,4.57,0,*7E
1532469684.12,28471,19.25,73938.8,5.01,4.59,4.59,0,*71
1532469685.38,28472,19.25,73938.3,5.01,4.71,4.67,0,*75
1532469686.62,28473,19.25,73944.5,5.03,4.71,4.67,0,*76
1532469687.87,28474,19.25,73936.8,5.01,4.67,4.71,0,*73
1532469689.11,28475,19.25,73940.3,5.03,4.71,4.71,0,*77
1532469690.36,28476,19.25,73944.3,5.03,4.71,4.71,0,*74
1532469691.61,28477,19.25,73944.3,5.01,4.67,4.71,0,*70
1532469692.87,28478,19.25,73934.5,5.01,4.67,4.71,0,*7F
1532469694.11,28479,19.25,73940.3,5.03,4.67,4.71,0,*7C
1532469695.33,28480,19.25,73940.8,5.03,4.67,4.59,0,*70
1532469696.54,28481,19.25,73948.0,5.03,4.59,4.57,0,*72
1532469697.74,28482,19.25,73948.3,5.03,4.57,4.59,0,*71
1532469698.92,28483,19.25,73946.5,5.03,4.57,4.57,0,*7E
1532469700.1,28484,19.25,73944.0,5.03,4.57,4.57,0,*79
1532469701.28,28485,19.25,73944.5,5.07,4.53,4.49,0,*77
1532469702.46,28486,19.25,73950.5,5.03,4.37,4.45,0,*7E
1532469703.64,28487,19.25,73950.3,5.07,4.41,4.49,0,*76
1532469704.84,28488,19.25,73954.0,5.09,4.37,4.53,0,*7D
1532469706.05,28489,19.25,73958.3,5.07,4.41,4.59,0,*79
1532469707.25,28490,19.25,73954.8,5.07,4.49,4.63,0,*70
1532469708.46,28491,19.25,73948.3,5.07,4.53,4.75,0,*7D
1532469709.69,28492,19.25,73948.3,5.07,4.63,4.75,0,*7D
1532469710.92,28493,19.25,73948.0,5.07,4.63,4.71,0,*78
1532469712.18,28494,19.25,73956.8,5.09,4.63,4.75,0,*75
1532469713.42,28495,19.25,73952.5,5.07,4.71,4.75,0,*79
1532469714.65,28496,19.25,73952.8,5.09,4.71,4.81,0,*7F
1532469715.88,28497,19.25,73960.8,5.09,4.75,4.81,0,*7A
1532469717.08,28498,19.25,73966.8,5.07,4.75,4.81,0,*7B
1532469718.28,28499,19.25,73942.8,5.07,4.75,4.81,0,*7A
1532469719.54,28500,19.25,73934.3,5.09,4.71,4.75,0,*7A
1532469720.78,28501,19.25,73944.3,5.07,4.71,4.71,0,*71
1532469722.01,28502,19.25,73936.3,5.07,4.63,4.63,0,*72
1532469723.27,28503,19.25,73930.0,5.09,4.59,4.63,0,*74
1532469724.5,28504,19.25,73932.0,5.09,4.53,4.59,0,*70
1532469725.73,28505,19.25,73936.3,5.09,4.59,4.53,0,*71
1532469726.93,28506,19.25,73932.5,5.11,4.53,4.59,0,*7B
1532469728.15,28507,19.25,73950.0,5.11,4.63,4.67,0,*74
1532469729.41,28508,19.25,73950.0,5.09,4.63,4.63,0,*76
1532469730.61,28509,19.25,73954.3,5.11,4.57,4.63,0,*79
1532469731.86,28510,19.25,73926.3,5.09,4.63,4.59,0,*76
1532469733.12,28511,19.25,73906.3,5.09,4.59,4.63,0,*77
1532469734.35,28512,19.25,73920.0,5.11,4.63,4.63,0,*74
1532469735.55,28513,19.25,73900.3,5.11,4.57,4.63,0,*72
1532469736.73,28514,19.25,73934.3,5.11,4.53,4.57,0,*76
1532469737.93,28515,19.25,73934.0,5.09,4.49,4.53,0,*71
1532469739.11,28516,19.25,73926.8,5.11,4.53,4.57,0,*74
1532469740.28,28517,19.25,73932.5,5.11,4.41,4.41,0,*71
1532469741.46,28518,19.25,73934.0,5.11,4.41,4.41,0,*7E
1532469742.67,28519,19.25,73918.5,5.11,4.31,4.07,0,*7A
1532469743.84,28520,19.25,73924.3,5.11,4.07,3.85,0,*78
1532469745.09,28521,19.25,73932.8,5.09,3.45,3.07,0,*7B
1532469746.35,28522,19.25,73908.3,5.09,2.17,2.25,0,*7F
1532469747.58,28523,19.25,73928.3,5.11,1.67,2.51,0,*70
1532469748.82,28524,19.19,73932.3,5.13,1.51,1.71,0,*71
1532469750.0,28525,19.25,73936.5,5.11,-0.73,-0.15,0,*70
1532469751.23,28526,19.25,73930.3,5.11,0.47,1.21,0,*42
1532469752.45,28527,19.25,73936.3,5.11,1.47,1.21,0,*72
1532469753.65,28528,19.25,73936.0,5.11,0.87,-1.25,0,*69
1532469754.86,28529,19.25,73936.0,5.11,-0.89,-3.39,0,*44
1532469756.05,28530,19.25,73942.3,5.11,-3.15,-4.57,0,*75
1532469757.26,28531,19.25,73942.8,5.11,-2.03,-1.29,0,*7E
1532469758.43,28532,19.25,73940.0,5.11,-0.61,-0.65,0,*72
1532469759.66,28533,19.25,73942.8,5.09,1.05,1.51,0,*7F
1532469760.91,28534,19.25,73944.3,5.09,2.39,2.13,0,*71
1532469762.11,28535,19.25,73942.3,5.11,2.89,2.27,0,*75
1532469763.36,28536,19.25,73952.8,5.09,2.59,1.13,0,*76
1532469764.59,28537,19.25,73956.5,5.09,1.17,-0.81,0,*69
1532469765.76,28538,19.25,73954.3,5.11,-0.03,-1.25,0,*79
1532469767.01,28539,19.25,73946.0,5.09,-0.27,0.17,0,*5A
1532469768.24,28540,19.19,73934.5,5.09,1.25,1.75,0,*7F
1532469769.46,28541,19.25,73938.5,5.09,2.35,2.89,0,*7C
1532469770.69,28542,19.25,73932.3,5.09,3.33,3.59,0,*74
1532469771.94,28543,19.25,73930.8,5.09,3.79,3.79,0,*79
1532469773.16,28544,19.25,73942.0,5.09,3.93,3.67,0,*75
1532469774.41,28545,19.25,73944.3,5.09,3.71,2.85,0,*75
1532469775.66,28546,19.25,73948.8,5.09,2.51,0.79,0,*44
1532469776.89,28547,19.19,73946.8,5.11,1.09,0.55,0,*4C
1532469778.11,28548,19.25,73944.8,5.11,0.63,-0.23,0,*52
1532469779.32,28549,19.25,73944.5,5.11,0.87,0.33,0,*75
1532469780.52,28550,19.25,73944.0,5.11,1.67,1.05,0,*76
1532469781.74,28551,19.25,73946.3,5.11,1.89,0.47,0,*40
1532469782.95,28552,19.25,73950.3,5.11,1.21,-0.15,0,*6B
1532469784.18,28553,19.25,73942.0,5.09,0.91,-0.57,0,*5F
1532469785.42,28554,19.25,73942.3,5.09,-0.41,-1.87,0,*44
1532469786.63,28555,19.25,73954.3,5.09,-0.41,-0.77,0,*7B
1532469787.8,28556,19.25,73954.0,5.07,0.43,-0.41,0,*5C
1532469789.01,28557,19.25,73948.8,5.09,-0.15,-1.21,0,*4A
1532469790.25,28558,19.25,73954.8,5.09,-1.39,-3.27,0,*7E
1532469791.47,28559,19.25,73944.8,5.11,-3.51,-3.27,0,*7A
1532469792.67,28560,19.25,73944.0,5.11,-2.91,-3.67,0,*79
1532469793.88,28561,19.25,73954.5,5.11,-2.75,-3.91,0,*7B
1532469795.12,28562,19.25,73950.0,5.07,-2.67,-5.11,0,*72
1532469796.38,28563,19.25,73950.5,5.09,-5.23,-7.05,0,*7D
1532469797.63,28564,19.25,73958.3,5.09,-3.79,-2.67,0,*72
1532469798.86,28565,19.25,73950.0,5.09,-1.75,-0.93,0,*44
1532469800.08,28566,19.25,73954.3,5.07,0.29,-0.27,0,*53
1532469801.29,28567,19.25,73958.5,5.09,0.17,-0.29,0,*5F
1532469802.52,28568,19.25,73954.5,5.09,-1.01,-0.45,0,*41
1532469803.73,28569,19.25,73952.5,5.07,-0.33,-1.09,0,*47
1532469804.94,28570,19.25,73958.0,5.09,-3.19,-3.79,0,*7F
1532469806.16,28571,19.19,73958.8,5.07,-3.67,-4.29,0,*7B
1532469807.37,28572,19.25,73958.8,5.07,-5.23,-3.79,0,*7C
1532469808.61,28573,19.25,73960.5,5.07,-4.81,-1.91,0,*70
1532469809.84,28574,19.25,73958.8,5.07,-2.07,0.91,0,*63
1532469811.06,28575,19.25,73954.3,5.07,0.55,1.67,0,*42
1532469812.27,28576,19.25,73950.0,5.07,1.67,1.79,0,*7E
1532469813.49,28577,19.25,73948.3,5.07,1.97,0.95,0,*43
1532469814.69,28578,19.25,73962.0,5.07,0.79,-0.57,0,*5E
1532469815.87,28579,19.25,73952.8,5.07,-0.57,-0.33,0,*7C
1532469817.08,28580,19.25,73946.8,5.07,-0.69,0.91,0,*52
1532469818.29,28581,19.25,73954.3,5.07,0.41,1.29,0,*46
1532469819.51,28582,19.25,73954.8,5.07,0.95,1.33,0,*47
1532469820.72,28583,19.25,73952.5,5.07,2.01,1.75,0,*7B
1532469821.94,28584,19.25,73956.0,5.07,2.05,1.17,0,*7C
1532469823.17,28585,19.25,73948.5,5.07,0.95,-1.01,0,*6C
1532469824.38,28586,19.25,73956.5,5.07,-0.27,-2.15,0,*4D
1532469825.59,28587,19.25,73944.5,5.07,-1.01,-1.29,0,*75
1532469826.78,28588,19.25,73954.8,5.07,-1.17,-0.53,0,*41
1532469827.96,28589,19.25,73960.0,5.07,-0.57,0.09,0,*67
1532469829.14,28590,19.25,73956.5,5.07,-0.57,-0.81,0,*72
1532469830.35,28591,19.25,73954.3,5.07,-2.67,-4.49,0,*72
1532469831.57,28592,19.25,73956.5,5.07,-6.55,-4.69,0,*76
1532469832.76,28593,19.25,73962.0,5.07,-4.37,-1.21,0,*78
1532469833.97,28594,19.25,73962.8,5.07,-3.55,-1.29,0,*74
1532469835.2,28595,19.25,73944.5,5.07,-3.55,0.71,0,*64
1532469836.39,28596,19.25,73942.3,5.07,-0.07,1.33,0,*54
1532469837.59,28597,19.25,73936.5,5.07,-0.03,0.29,0,*6B
1532469838.82,28598,19.25,73944.8,5.03,-0.23,-0.23,0,*75
1532469840.01,28599,19.25,73942.0,5.03,-0.49,-0.93,0,*73
1532469841.23,28600,19.25,73936.8,5.03,-1.21,-2.59,0,*7B
1532469842.47,28601,19.25,73944.8,5.03,-2.47,-3.71,0,*72
1532469843.7,28602,19.25,73942.8,5.01,-2.59,-3.83,0,*71
1532469844.92,28603,19.25,73936.8,5.03,-5.31,-6.55,0,*75
1532469846.16,28604,19.25,73956.3,5.01,-5.81,-6.81,0,*72
1532469847.39,28605,19.19,73948.5,5.03,-10.49,-11.89,0,*7F
1532469848.64,28606,19.25,73950.8,5.01,-13.01,-10.89,0,*70
1532469849.88,28607,19.25,73950.8,5.01,-11.63,-7.49,0,*4D
1532469851.14,28608,19.25,73950.8,5.01,-6.97,-3.63,0,*73
1532469852.4,28609,19.19,73946.5,5.01,-4.89,-4.01,0,*7C
1532469853.63,28610,19.19,73946.8,5.01,-4.85,-6.47,0,*78
1532469854.85,28611,19.25,73952.0,4.99,-6.27,-8.25,0,*79
1532469856.04,28612,19.25,73952.0,4.99,-6.51,-9.71,0,*7B
1532469857.29,28613,19.25,73948.5,4.97,-11.23,-13.79,0,*74
1532469858.54,28614,19.25,73948.0,4.97,-13.79,-15.29,0,*7D
1532469859.77,28615,19.25,73950.8,4.97,-14.37,-15.11,0,*7A
1532469861.02,28616,19.19,73952.8,4.97,-14.69,-15.43,0,*75
1532469862.24,28617,19.25,73950.8,4.97,-15.15,-15.99,0,*79
1532469863.51,28618,19.19,73948.3,4.97,-15.57,-16.13,0,*71
1532469864.74,28619,19.25,73952.0,4.95,-15.39,-16.03,0,*7B
1532469866.0,28620,19.25,73954.3,4.93,-15.29,-16.09,0,*7C
1532469867.23,28621,19.25,73958.5,4.95,-15.43,-15.99,0,*7D
1532469868.49,28622,19.19,73956.3,4.93,-15.85,-16.03,0,*72
1532469869.75,28623,19.19,73952.3,4.93,-13.97,-13.55,0,*70
1532469871.03,28624,19.25,73956.5,4.93,-12.35,-11.73,0,*78
1532469872.28,28625,19.25,73958.3,4.93,-10.79,-11.15,0,*73
1532469873.56,28626,19.25,73960.8,4.91,-12.11,-12.11,0,*79
1532469874.81,28627,19.25,73958.8,4.91,-13.73,-11.07,0,*79
1532469876.05,28628,19.25,73956.3,4.91,-7.11,-5.69,0,*7A
1532469877.26,28629,19.19,73944.8,4.89,-2.59,-3.27,0,*77
1532469878.47,28630,19.25,73944.0,4.89,-1.13,-2.27,0,*73
1532469879.7,28631,19.25,73948.0,4.91,-1.47,-4.45,0,*78
1532469880.91,28632,19.25,73954.0,4.89,-2.99,-7.31,0,*72
1532469882.15,28633,19.19,73946.5,4.91,-5.65,-7.23,0,*7D
1532469883.34,28634,19.25,73936.5,4.89,-4.25,-3.11,0,*73
1532469884.59,28635,19.25,73944.3,4.87,-2.63,0.17,0,*60
1532469885.83,28636,19.25,73950.3,4.87,-0.69,1.21,0,*6F
1532469887.02,28637,19.25,73940.3,4.89,0.97,1.59,0,*43
1532469888.24,28638,19.25,73940.3,4.89,1.25,0.51,0,*4D
1532469889.44,28639,19.19,73954.3,4.91,-0.11,-1.25,0,*41
1532469890.65,28640,19.25,73960.8,4.91,-0.57,-2.31,0,*4B
1532469891.89,28641,19.25,73960.5,4.91,-2.23,-5.31,0,*7C
1532469893.13,28642,19.25,73952.5,4.89,-5.15,-6.19,0,*7D
1532469894.33,28643,19.19,73952.8,4.89,-4.93,-5.47,0,*7B
1532469895.55,28644,19.25,73952.0,4.89,-6.09,-5.27,0,*7B
1532469896.76,28645,19.25,73952.8,4.89,-5.35,-2.59,0,*78
1532469897.99,28646,19.19,73946.8,4.89,-3.51,-0.89,0,*40
1532469899.2,28647,19.19,73950.0,4.89,-4.37,-2.11,0,*75
1532469900.43,28648,19.25,73950.3,4.89,-3.63,-1.13,0,*7D
1532469901.64,28649,19.25,73950.0,4.89,-1.95,-0.11,0,*44
1532469902.83,28650,19.25,73952.5,4.91,-0.49,0.43,0,*5F
1532469904.02,28651,19.25,73958.0,4.89,-0.45,0.41,0,*59
1532469905.23,28652,19.25,73952.0,4.91,0.05,0.13,0,*4D
1532469906.44,28653,19.25,73946.8,4.89,-1.59,-1.99,0,*7E
1532469907.65,28654,19.25,73950.3,4.91,-2.87,-2.95,0,*7F
1532469908.89,28655,19.25,73948.8,4.91,-5.27,-5.51,0,*7C
1532469910.12,28656,19.25,73950.3,4.89,-6.27,-5.69,0,*7E
1532469911.34,28657,19.25,73952.0,4.89,-7.95,-5.55,0,*78
1532469912.55,28658,19.25,73950.0,4.89,-10.23,-6.27,0,*4A
1532469913.74,28659,19.19,73942.5,4.89,-9.27,-4.05,0,*75
1532469914.95,28660,19.25,73946.8,4.89,-6.05,-1.35,0,*76
1532469916.18,28661,19.25,73940.0,4.89,-2.63,1.09,0,*51
1532469917.38,28662,19.19,73938.8,4.89,-0.11,2.43,0,*68
1532469918.61,28663,19.25,73946.8,4.89,1.55,3.03,0,*70
1532469919.84,28664,19.25,73936.0,4.89,2.39,3.33,0,*7D
1532469921.06,28665,19.19,73926.8,4.89,2.69,3.49,0,*74
1532469922.26,28666,19.19,73942.5,4.89,2.99,3.53,0,*73
1532469923.48,28667,19.25,73958.8,4.91,3.41,3.85,0,*74
1532469924.67,28668,19.25,73966.5,4.91,3.55,3.85,0,*7E
1532469925.87,28669,19.25,73958.8,4.89,3.71,3.93,0,*77
1532469927.07,28670,19.19,73940.0,4.91,3.63,3.85,0,*72
1532469928.24,28671,19.25,73960.3,4.89,3.85,3.85,0,*72
1532469929.47,28672,19.19,73950.0,4.91,3.89,3.67,0,*78
1532469930.68,28673,19.25,73964.0,4.89,3.53,3.37,0,*72
1532469931.94,28674,19.25,73970.0,4.91,3.15,3.07,0,*7D
1532469933.16,28675,19.25,73960.5,4.91,2.69,2.95,0,*7C
1532469934.41,28676,19.19,73952.3,4.91,2.73,3.03,0,*7A
1532469935.64,28677,19.25,73948.5,4.91,3.15,3.29,0,*72
1532469936.89,28678,19.19,73942.0,4.91,3.45,3.15,0,*77
1532469938.15,28679,19.25,73932.3,4.93,3.37,2.73,0,*70
1532469939.41,28680,19.25,73958.8,4.93,3.03,2.25,0,*72
1532469940.67,28681,19.25,73966.0,4.93,2.81,2.01,0,*7E
1532469941.9,28682,19.25,73962.5,4.93,2.27,1.25,0,*74
1532469943.1,28683,19.19,73956.3,4.95,1.41,0.21,0,*45
1532469944.33,28684,19.19,73958.0,4.93,0.41,-0.73,0,*5F
1532469945.53,28685,19.25,73958.0,4.93,-0.33,-0.61,0,*75
1532469946.78,28686,19.19,73956.0,4.93,0.51,1.37,0,*40
1532469948.02,28687,19.25,73952.3,4.95,1.67,2.13,0,*76
1532469949.23,28688,19.25,73954.3,4.95,2.35,2.17,0,*79
1532469950.49,28689,19.25,73952.5,4.93,2.43,1.09,0,*73
1532469951.71,28690,19.25,73956.0,4.97,1.89,-0.03,0,*5C
1532469952.92,28691,19.25,73954.5,4.95,1.13,-0.03,0,*5C
1532469954.19,28692,19.25,73954.5,4.93,1.37,0.51,0,*45
1532469955.4,28693,19.25,73954.0,4.95,1.13,0.05,0,*75
1532469956.62,28694,19.25,73952.5,4.95,0.83,0.83,0,*74
1532469957.85,28695,19.19,73944.5,4.99,1.43,2.17,0,*7B
1532469959.08,28696,19.25,73942.5,4.97,2.27,3.07,0,*77
1532469960.33,28697,19.19,73940.8,4.97,2.89,3.49,0,*78
1532469961.58,28698,19.19,73944.8,4.97,3.45,3.71,0,*7D
1532469962.8,28699,19.19,73936.8,4.97,3.55,3.79,0,*75
1532469964.01,28700,19.19,73938.8,4.99,3.71,3.63,0,*77
1532469965.23,28701,19.19,73940.5,4.97,3.59,3.07,0,*70
1532469966.42,28702,19.25,73946.8,4.99,3.59,2.61,0,*7C
1532469967.64,28703,19.25,73946.8,4.99,3.45,1.59,0,*78
1532469968.86,28704,19.25,73952.5,4.97,2.85,1.01,0,*71
1532469970.09,28705,19.25,73954.8,4.99,2.51,1.17,0,*70
1532469971.33,28706,19.25,73948.5,4.99,2.17,1.33,0,*77
1532469972.58,28707,19.19,73938.8,4.97,1.89,1.55,0,*7C
1532469973.8,28708,19.19,73944.3,4.99,2.09,1.89,0,*77
1532469975.05,28709,19.25,73970.5,4.97,2.13,1.67,0,*73
1532469976.27,28710,19.19,73948.0,4.99,2.21,1.47,0,*76
1532469977.5,28711,19.19,73944.8,4.99,1.97,0.75,0,*49
1532469978.73,28712,19.19,73946.3,4.99,0.87,-0.89,0,*54
1532469979.93,28713,19.25,73954.0,4.97,0.09,-2.15,0,*5A
1532469981.17,28714,19.25,73950.3,4.97,-0.81,-2.63,0,*41
1532469982.42,28715,19.25,73948.0,4.99,-1.47,-2.71,0,*76
1532469983.64,28716,19.25,73950.0,4.99,-2.11,-2.15,0,*77
1532469984.86,28717,19.25,73946.8,4.97,-1.51,0.29,0,*6F
1532469986.06,28718,19.19,73952.3,4.99,0.71,2.31,0,*4B
1532469987.28,28719,19.25,73942.3,4.97,2.59,3.29,0,*74
1532469988.49,28720,19.25,73938.5,4.99,3.37,3.59,0,*7E
1532469989.69,28721,19.25,73938.5,4.99,3.71,3.63,0,*74
1532469990.9,28722,19.19,73944.3,4.99,3.75,3.63,0,*73
1532469992.11,28723,19.19,73946.3,4.99,3.81,3.49,0,*71
1532469993.29,28724,19.25,73938.5,4.99,3.63,3.25,0,*70
1532469994.47,28725,19.19,73944.8,4.99,3.25,2.99,0,*75
1532469995.7,28726,19.19,73946.8,5.01,3.25,2.77,0,*76
1532469996.93,28727,19.25,73938.3,4.99,2.81,2.09,0,*71
1532469998.14,28728,19.25,73942.0,4.99,2.77,2.65,0,*7D
1532469999.39,28729,19.19,73934.3,5.01,3.19,2.85,0,*7B
1532470000.65,28730,19.25,73942.3,5.01,3.15,2.81,0,*7B
1532470001.87,28731,19.25,73948.5,5.01,2.91,2.21,0,*7D
1532470003.12,28732,19.25,73948.5,5.01,2.09,0.13,0,*4C
1532470004.31,28733,19.25,73944.0,5.01,0.05,-0.33,0,*6C
1532470005.56,28734,19.19,73934.0,5.01,1.47,1.93,0,*7A
1532470006.74,28735,19.25,73932.8,4.99,2.65,2.31,0,*73
1532470007.94,28736,19.19,73930.5,5.01,2.91,2.35,0,*7F
1532470009.16,28737,19.25,73946.5,5.03,2.55,1.71,0,*77
1532470010.38,28738,19.25,73940.3,5.01,0.97,0.25,0,*76
1532470011.57,28739,19.25,73936.3,5.01,0.01,-0.11,0,*62
1532470012.81,28740,19.19,73948.0,5.01,0.37,0.75,0,*76
1532470014.07,28741,19.25,73960.8,5.01,1.37,1.09,0,*7C
1532470015.31,28742,19.19,73950.3,5.01,1.21,-0.81,0,*64
1532470016.52,28743,19.19,73952.0,5.01,-3.87,-8.59,0,*7B
1532470017.78,28744,19.25,73954.0,5.01,-7.65,-9.15,0,*7D
1532470018.99,28745,19.25,73958.0,5.03,-6.55,-9.11,0,*78
1532470020.21,28746,19.25,73952.5,5.01,-9.27,-11.23,0,*4B
1532470021.45,28747,19.25,73952.3,5.01,-7.01,-6.09,0,*7E
1532470022.63,28748,19.25,73954.5,5.03,-4.41,-7.53,0,*7A
1532470023.87,28749,19.19,73952.3,5.01,-7.83,-9.45,0,*7D
1532470025.09,28750,19.25,73952.8,4.99,-9.31,-9.57,0,*71
1532470026.32,28751,19.19,73958.8,4.99,-11.67,-11.41,0,*74
1532470027.55,28752,19.25,73956.3,4.99,-10.85,-10.71,0,*78
1532470028.77,28753,19.19,73952.5,4.99,-8.75,-8.11,0,*70
1532470029.96,28754,19.25,73952.5,4.99,-4.29,-4.53,0,*78
1532470031.2,28755,19.19,73952.8,4.97,-3.71,-3.91,0,*74
1532470032.38,28756,19.25,73964.5,4.99,-2.39,-4.45,0,*7A
1532470033.63,28757,19.19,73960.5,4.97,-5.47,-7.73,0,*7D
1532470034.82,28758,19.25,73946.0,4.99,-6.35,-5.43,0,*7B
1532470036.06,28759,19.25,73952.0,4.97,-2.63,-1.55,0,*70
1532470037.3,28760,19.19,73948.5,4.97,0.67,0.47,0,*7E
1532470038.56,28761,19.25,73950.0,4.97,1.85,0.91,0,*49
1532470039.8,28762,19.19,73950.8,4.97,2.05,0.83,0,*42
1532470041.05,28763,19.25,73954.5,4.97,1.89,1.17,0,*78
1532470042.31,28764,19.19,73952.3,4.97,2.39,1.85,0,*7C
1532470043.55,28765,19.25,73942.5,4.97,2.69,2.05,0,*73
1532470044.77,28766,19.25,73950.3,4.97,2.89,2.35,0,*7D
1532470045.98,28767,19.25,73960.0,4.99,2.99,2.21,0,*76
1532470047.22,28768,19.25,73958.5,4.97,2.73,1.21,0,*70
1532470048.43,28769,19.19,73964.0,4.99,1.97,-0.53,0,*6F
1532470049.63,28770,19.25,73972.5,4.97,0.05,-1.55,0,*54
1532470050.85,28771,19.19,73956.5,4.97,-1.17,-1.55,0,*7A
1532470052.06,28772,19.19,73962.8,4.99,-1.17,-0.85,0,*4B
1532470053.27,28773,19.19,73952.5,4.97,-0.57,-1.63,0,*48
1532470054.48,28774,19.19,73946.8,4.97,-0.03,-0.15,0,*4E
1532470055.7,28775,19.25,73950.0,4.99,1.09,0.95,0,*42
1532470056.94,28776,19.19,73946.3,4.97,0.67,0.17,0,*7C
1532470058.18,28777,19.19,73964.8,4.99,-1.01,-1.09,0,*7C
1532470059.37,28778,19.19,73950.3,4.99,-3.03,-2.23,0,*78
1532470060.58,28779,19.25,73966.0,4.97,-2.91,-0.41,0,*4B
1532470061.81,28780,19.19,73944.5,4.97,-2.27,0.71,0,*6E
1532470063.04,28781,19.19,73942.3,4.99,-1.01,1.71,0,*57
1532470064.26,28782,19.19,73946.5,4.99,0.33,2.17,0,*4A
1532470065.48,28783,19.19,73922.5,4.99,1.21,2.61,0,*78
1532470066.66,28784,19.19,73950.3,4.99,1.83,2.91,0,*78
1532470067.9,28785,19.19,73960.5,4.99,2.17,3.03,0,*7D
1532470069.13,28786,19.25,73948.5,4.99,1.93,3.03,0,*71
1532470070.37,28787,19.25,73940.5,4.99,1.97,3.11,0,*77
1532470071.62,28788,19.25,73946.0,4.97,2.05,3.11,0,*7E
1532470072.84,28789,19.19,73954.3,4.97,2.69,3.29,0,*7E
1532470074.07,28790,19.19,73952.0,4.99,2.89,3.37,0,*79
1532470075.33,28791,19.19,73962.5,4.97,2.89,3.41,0,*77
1532470076.58,28792,19.19,73946.3,4.97,2.59,3.11,0,*7C
1532470077.79,28793,19.19,73960.8,4.99,2.39,3.25,0,*72
1532470079.03,28794,19.19,73956.5,4.99,2.17,3.15,0,*7A
1532470080.25,28795,19.19,73924.3,4.99,1.33,2.65,0,*78
1532470081.48,28796,19.19,73948.5,4.99,0.95,2.17,0,*43
1532470082.73,28797,19.19,73964.5,4.97,0.79,2.13,0,*4A
1532470083.95,28798,19.19,73950.5,4.99,0.75,2.21,0,*46
1532470085.17,28799,19.19,73936.0,4.99,-2.59,1.47,0,*55
1532470086.39,28800,19.19,73952.0,4.97,-3.91,2.27,0,*54
1532470087.6,28801,19.19,73954.8,4.99,-2.15,3.03,0,*51
1532470088.8,28802,19.19,73946.5,4.99,0.47,3.59,0,*45
1532470090.05,28803,19.25,73936.5,4.97,0.83,3.49,0,*43
1532470091.3,28804,19.19,73946.0,4.97,1.89,3.75,0,*70
1532470092.5,28805,19.19,73938.8,4.99,2.77,3.81,0,*76
1532470093.69,28806,19.19,73928.0,4.99,3.25,3.93,0,*70
1532470094.91,28807,19.19,73934.3,4.97,3.59,4.05,0,*7C
1532470096.15,28808,19.19,73930.0,4.99,3.71,4.05,0,*77
1532470097.33,28809,19.19,73934.3,4.99,3.93,4.15,0,*7B
1532470098.56,28810,19.19,73934.3,4.97,4.05,4.15,0,*75
1532470099.81,28811,19.19,73934.5,4.97,4.01,4.05,0,*71
1532470100.99,28812,19.25,73940.5,4.99,4.15,4.15,0,*78
1532470102.17,28813,19.19,73938.5,4.99,4.19,4.19,0,*79
1532470103.38,28814,19.25,73940.0,4.99,4.07,3.97,0,*70
1532470104.6,28815,19.19,73938.8,4.99,3.97,3.97,0,*7F
1532470105.85,28816,19.19,73944.3,4.97,3.79,3.67,0,*7D
1532470107.06,28817,19.19,73942.3,4.99,3.97,3.81,0,*7A
1532470108.31,28818,19.25,73948.8,4.97,3.71,3.07,0,*7D
1532470109.56,28819,19.19,73948.3,4.97,3.11,0.67,0,*4F
1532470110.78,28820,19.25,73950.5,4.97,1.89,-3.31,0,*5B
1532470111.97,28821,19.19,73944.3,4.99,-0.37,-6.55,0,*4A
1532470113.21,28822,19.25,73942.3,4.97,-2.39,-6.97,0,*75
1532470114.45,28823,19.19,73936.3,4.97,-4.05,-4.85,0,*7C
1532470115.66,28824,19.19,73942.5,4.97,-2.83,-4.05,0,*7B
1532470116.88,28825,19.25,73948.3,4.97,-3.95,-5.47,0,*7B
1532470118.13,28826,19.19,73952.0,4.95,-5.89,-10.41,0,*43
1532470119.39,28827,19.19,73944.0,4.93,-12.57,-15.07,0,*76
1532470120.61,28828,19.19,73946.8,4.93,-12.89,-13.15,0,*7F
1532470121.89,28829,19.19,73946.8,4.93,-11.29,-13.83,0,*78
1532470123.12,28830,19.19,73946.8,4.93,-12.43,-13.15,0,*70
1532470124.34,28831,19.25,73946.5,4.95,-11.33,-13.15,0,*73
1532470125.56,28832,19.25,73946.5,4.93,-9.97,-13.15,0,*41